Regional Weather Roundup
Issued by NWS

Home | Current Version | Previous Version | Graphics & Text | Print | Product List | Glossary On
Versions: 1 2 3 4 5 6 7 8 9 10 11 12 13 14 15 16 17 18 19 20 21 22 23 24 25 26 27 28 29 30 31 32 33 34 35 36 37 38 39 40 41 42 43 44 45 46 47 48 49 50
000
ASUS43 KLMK 012010
RWRKY
KENTUCKY REGIONAL WEATHER ROUNDUP
NATIONAL WEATHER SERVICE LOUISVILLE KY
400 PM EDT WED APR 01 2015

NOTE "FAIR" INDICATES FEW OR NO CLOUDS BELOW 12,000 FEET
WITH NO SIGNIFICANT WEATHER AND/OR OBSTRUCTIONS TO VISIBILITY.

KYZ001>023-026-027-061>063-070>075-012100-
WESTERN AND SOUTH CENTRAL KENTUCKY

CITY           SKY/WX    TMP DP  RH WIND       PRES   REMARKS
PADUCAH        SUNNY     77  36  22 SE9       29.99F
HENDERSON      MOSUNNY   72  37  28 SE10G16   30.02F
OWENSBORO      SUNNY     72  38  29 SE13      30.04F
HOPKINSVILLE   SUNNY     73  36  25 E13       30.03F
BOWLING GREEN  SUNNY     71  35  26 E10       30.08F
GLASGOW        SUNNY     70  33  26 E9        30.08F
$$

KYZ024-025-028>034-038-045-046-053-012100-
NORTH CENTRAL KENTUCKY

CITY           SKY/WX    TMP DP  RH WIND       PRES   REMARKS
LOUISVILLE/SDF PTSUNNY   69  32  25 E9        30.09F
LOUISVILLE/LOU SUNNY     67  33  28 E7        30.09F
FORT KNOX      SUNNY     69  31  24 E12       30.06F
$$

KYZ035>037-039>044-047>052-055>060-089>105-012100-
NORTHEAST KENTUCKY

CITY           SKY/WX    TMP DP  RH WIND       PRES   REMARKS
LEXINGTON      SUNNY     64  26  23 VRB6      30.11F
COVINGTON      MOSUNNY   65  31  28 VRB3      30.10F
FRANKFORT      SUNNY     64  29  26 E13       30.10F
$$

KYZ054-064>069-076>088-106>120-012100-
SOUTHEAST KENTUCKY

CITY           SKY/WX    TMP DP  RH WIND       PRES   REMARKS
JACKSON        SUNNY     64  22  20 MISG      30.12F
LONDON         SUNNY     68  19  15 E8        30.10F
SOMERSET       SUNNY     66  23  19 SE8       30.10F
MIDDLESBORO    SUNNY     70  18  13 CALM      30.09S
MONTICELLO     CLEAR     70  31  23 NE7       30.12F
$$




USA.gov is the U.S. government's official web portal to all federal, state and local government web resources and services.